No particular awareness of the weather is required.    There are no Weather-warnings


Meteo18 Weather Cam more information Meteo18 Weather Cam


Thunder radar more information blitzortung!


Rain radar more information rain snow radar


Visit our other weather sites:

Template documentation
and downloads

And another site



Weather Underground History page Text

Daily Summary for February 27, 2018 Units:  English    Metric   Both
« Previous Day
Next Day »
Daily Weekly Monthly Yearly Custom
  High: Low: Average:
Temperature: TemperatureC °F -8.3 °F -5.5 °F
Dew Point: DewpointC °F -13.2 °F -12.2 °F
Humidity: Humidity % 45 % 60 %
Wind Speed: WindSpeedKMH mph 0.0 mph 11.5 mph
Wind Gust: WindSpeedGustKMH mph - -
Wind:- - East
Pressure: PressurehPa in 1014.4 in -
Precipitation: 0.0 in    
Historical Graphs
 
 
Tabular Data for February 27, 2018
Time Temperature Dew Point Pressure Wind Wind Speed Wind Gust Humidity Rainfall Rate (Hourly)
TemperatureC °F DewpointC °F PressurehPa in Calm     Humidity % HourlyPrecipMM in
00:01 -5.5 °F -12.2 °F 1018.8 in NNE 9.7 mph 14.5 mph 59 % 0.0 in
00:07 -5.5 °F -12.5 °F 1018.8 in NE 13.0 mph 27.4 mph 58 % 0.0 in
00:13 -5.6 °F -12.3 °F 1018.8 in NE 20.9 mph 29.0 mph 59 % 0.0 in
00:19 -5.6 °F -12.1 °F 1018.8 in NE 11.1 mph 19.3 mph 60 % 0.0 in
00:25 -5.7 °F -12.2 °F 1018.8 in North 7.9 mph 24.1 mph 60 % 0.0 in
00:31 -5.7 °F -12.0 °F 1018.8 in NE 13.0 mph 25.7 mph 61 % 0.0 in
00:37 -5.8 °F -12.1 °F 1018.8 in NE 17.7 mph 24.1 mph 61 % 0.0 in
00:43 -5.8 °F -12.1 °F 1018.8 in NE 17.7 mph 29.0 mph 61 % 0.0 in
00:49 -5.8 °F -12.1 °F 1018.8 in NNE 19.5 mph 27.4 mph 61 % 0.0 in
00:55 -5.8 °F -12.1 °F 1018.8 in NE 9.7 mph 19.3 mph 61 % 0.0 in
01:01 -5.8 °F -12.1 °F 1018.8 in NNE 19.5 mph 27.4 mph 61 % 0.0 in
01:07 -5.9 °F -12.0 °F 1018.8 in NE 17.7 mph 25.7 mph 62 % 0.0 in
01:13 -5.9 °F -12.0 °F 1018.5 in NE 17.7 mph 22.5 mph 62 % 0.0 in
01:19 -6.0 °F -12.1 °F 1018.5 in NNE 7.9 mph 27.4 mph 62 % 0.0 in
01:25 -6.1 °F -12.2 °F 1018.5 in NNE 11.1 mph 22.5 mph 62 % 0.0 in
01:31 -6.1 °F -12.0 °F 1018.5 in NE 11.1 mph 22.5 mph 63 % 0.0 in
01:38 -6.2 °F -12.3 °F 1018.5 in NE 17.7 mph 20.9 mph 62 % 0.0 in
01:44 -6.2 °F -12.1 °F 1018.5 in NNE 11.1 mph 20.9 mph 63 % 0.0 in
01:50 -6.2 °F -12.1 °F 1018.5 in North 6.4 mph 25.7 mph 63 % 0.0 in
01:56 -6.2 °F -12.3 °F 1018.5 in North 7.9 mph 25.7 mph 62 % 0.0 in
02:02 -6.2 °F -12.1 °F 1018.2 in NE 17.7 mph 27.4 mph 63 % 0.0 in
02:08 -6.3 °F -12.2 °F 1018.5 in NNE 17.7 mph 19.3 mph 63 % 0.0 in
02:14 -6.3 °F -12.2 °F 1018.5 in North 4.7 mph 19.3 mph 63 % 0.0 in
02:20 -6.3 °F -12.2 °F 1018.2 in NE 11.1 mph 22.5 mph 63 % 0.0 in
02:26 -6.3 °F -12.4 °F 1018.2 in NE 16.3 mph 38.6 mph 62 % 0.0 in
02:32 -6.4 °F -12.3 °F 1018.5 in East 3.2 mph 27.4 mph 63 % 0.0 in
02:38 -6.4 °F -12.5 °F 1018.5 in NNE 11.1 mph 25.7 mph 62 % 0.0 in
02:44 -6.4 °F -12.3 °F 1018.5 in NNE 14.3 mph 19.3 mph 63 % 0.0 in
02:50 -6.5 °F -12.4 °F 1018.2 in ENE 11.1 mph 19.3 mph 63 % 0.0 in
02:56 -6.6 °F -12.5 °F 1018.2 in North 4.7 mph 19.3 mph 63 % 0.0 in
03:02 -6.7 °F -12.6 °F 1018.2 in NE 6.4 mph 22.5 mph 63 % 0.0 in
03:08 -6.7 °F -12.6 °F 1018.2 in NNE 9.7 mph 24.1 mph 63 % 0.0 in
03:14 -6.7 °F -12.6 °F 1018.2 in ENE 9.7 mph 29.0 mph 63 % 0.0 in
03:20 -6.7 °F -12.6 °F 1018.2 in NNE 9.7 mph 24.1 mph 63 % 0.0 in
03:26 -6.7 °F -12.6 °F 1018.2 in NNE 11.1 mph 24.1 mph 63 % 0.0 in
03:32 -6.8 °F -12.7 °F 1017.8 in NE 19.5 mph 24.1 mph 63 % 0.0 in
03:38 -6.8 °F -12.7 °F 1017.8 in NE 24.1 mph 24.1 mph 63 % 0.0 in
03:44 -6.8 °F -12.7 °F 1017.8 in ENE 9.7 mph 22.5 mph 63 % 0.0 in
03:50 -6.9 °F -12.8 °F 1017.8 in NNE 16.3 mph 19.3 mph 63 % 0.0 in
03:56 -6.9 °F -12.6 °F 1017.8 in NE 6.4 mph 17.7 mph 64 % 0.0 in
04:02 -7.0 °F -12.7 °F 1017.8 in NE 13.0 mph 20.9 mph 64 % 0.0 in
04:08 -7.0 °F -12.7 °F 1017.8 in NE 11.1 mph 22.5 mph 64 % 0.0 in
04:14 -7.1 °F -12.8 °F 1017.8 in NNE 13.0 mph 19.3 mph 64 % 0.0 in
04:20 -7.1 °F -12.8 °F 1017.8 in NE 13.0 mph 20.9 mph 64 % 0.0 in
04:26 -7.1 °F -12.6 °F 1017.8 in NE 22.7 mph 29.0 mph 65 % 0.0 in
04:32 -7.1 °F -12.8 °F 1017.8 in NNE 7.9 mph 22.5 mph 64 % 0.0 in
04:38 -7.1 °F -12.8 °F 1017.8 in NNE 16.3 mph 27.4 mph 64 % 0.0 in
04:44 -7.1 °F -12.9 °F 1017.8 in NNE 16.3 mph 24.1 mph 63 % 0.0 in
04:50 -7.1 °F -12.9 °F 1017.8 in NNE 4.7 mph 22.5 mph 63 % 0.0 in
04:56 -7.2 °F -12.8 °F 1017.8 in NNE 3.2 mph 19.3 mph 64 % 0.0 in
05:02 -7.2 °F -13.0 °F 1017.8 in ENE 9.7 mph 29.0 mph 63 % 0.0 in
05:08 -7.2 °F -12.8 °F 1017.8 in NW 6.4 mph 24.1 mph 64 % 0.0 in
05:14 -7.3 °F -12.9 °F 1017.8 in NE 16.3 mph 17.7 mph 64 % 0.0 in
05:20 -7.3 °F -12.8 °F 1017.8 in ENE 1.4 mph 11.3 mph 65 % 0.0 in
05:26 -7.4 °F -12.7 °F 1017.8 in NNE 4.7 mph 16.1 mph 66 % 0.0 in
05:32 -7.4 °F -12.7 °F 1017.8 in NNE 7.9 mph 19.3 mph 66 % 0.0 in
05:38 -7.6 °F -12.7 °F 1017.8 in NW 9.7 mph 20.9 mph 67 % 0.0 in
05:44 -7.7 °F -12.6 °F 1017.8 in NE 17.7 mph 19.3 mph 68 % 0.0 in
05:50 -7.7 °F -12.4 °F 1017.8 in North 6.4 mph 11.3 mph 69 % 0.0 in
05:56 -7.8 °F -12.3 °F 1017.8 in NNE 9.7 mph 11.3 mph 70 % 0.0 in
06:02 -7.8 °F -12.3 °F 1017.8 in North 11.1 mph 17.7 mph 70 % 0.0 in
06:08 -7.9 °F -12.4 °F 1017.8 in NNW 7.9 mph 20.9 mph 70 % 0.0 in
06:14 -7.8 °F -12.3 °F 1017.8 in NNE 6.4 mph 22.5 mph 70 % 0.0 in
06:20 -7.8 °F -12.5 °F 1017.8 in NNW 6.4 mph 17.7 mph 69 % 0.0 in
06:26 -7.9 °F -12.4 °F 1017.8 in NNE 3.2 mph 9.7 mph 70 % 0.0 in
06:32 -7.9 °F -12.4 °F 1017.8 in NNW 3.2 mph 17.7 mph 70 % 0.0 in
06:38 -7.9 °F -12.4 °F 1017.8 in NNE 3.2 mph 11.3 mph 70 % 0.0 in
06:44 -7.9 °F -12.4 °F 1017.8 in NE 19.5 mph 22.5 mph 70 % 0.0 in
06:50 -7.9 °F -12.4 °F 1017.8 in NNW 4.7 mph 17.7 mph 70 % 0.0 in
06:56 -8.1 °F -12.6 °F 1017.8 in NE 3.2 mph 14.5 mph 70 % 0.0 in
07:02 -8.1 °F -12.4 °F 1017.8 in North 7.9 mph 11.3 mph 71 % 0.0 in
07:08 -8.2 °F -12.5 °F 1017.5 in North 1.4 mph 9.7 mph 71 % 0.0 in
07:14 -8.2 °F -12.5 °F 1017.5 in North 9.7 mph 20.9 mph 71 % 0.0 in
07:20 -8.1 °F -12.6 °F 1017.5 in NE 14.3 mph 20.9 mph 70 % 0.0 in
07:26 -8.2 °F -12.7 °F 1017.5 in NE 11.1 mph 20.9 mph 70 % 0.0 in
07:32 -8.2 °F -12.5 °F 1017.5 in NNW 3.2 mph 16.1 mph 71 % 0.0 in
07:38 -8.3 °F -12.6 °F 1017.5 in NNE 4.7 mph 12.9 mph 71 % 0.0 in
07:44 -8.3 °F -12.6 °F 1017.5 in North 11.1 mph 19.3 mph 71 % 0.0 in
07:50 -8.2 °F -12.5 °F 1017.5 in NE 1.4 mph 19.3 mph 71 % 0.0 in
07:56 -8.2 °F -12.5 °F 1017.5 in NW 9.7 mph 17.7 mph 71 % 0.0 in
08:02 -8.2 °F -12.5 °F 1017.5 in NNE 11.1 mph 11.3 mph 71 % 0.0 in
08:14 -8.0 °F -12.5 °F 1017.8 in NE 7.9 mph 17.7 mph 70 % 0.0 in
08:20 -7.9 °F -12.4 °F 1017.8 in NNE 7.9 mph 16.1 mph 70 % 0.0 in
08:26 -7.7 °F -12.2 °F 1017.8 in NE 3.2 mph 14.5 mph 70 % 0.0 in
08:32 -7.7 °F -12.4 °F 1017.8 in North 6.4 mph 20.9 mph 69 % 0.0 in
08:38 -7.5 °F -12.2 °F 1017.8 in NE 1.4 mph 25.7 mph 69 % 0.0 in
08:44 -7.3 °F -12.0 °F 1017.8 in NNE 17.7 mph 20.9 mph 69 % 0.0 in
08:50 -7.2 °F -11.9 °F 1017.8 in NE 7.9 mph 19.3 mph 69 % 0.0 in
08:56 -7.1 °F -12.0 °F 1017.5 in NNE 13.0 mph 24.1 mph 68 % 0.0 in
09:02 -7.0 °F -11.7 °F 1017.5 in NNE 16.3 mph 17.7 mph 69 % 0.0 in
09:08 -7.0 °F -11.9 °F 1017.5 in NNE 4.7 mph 24.1 mph 68 % 0.0 in
09:14 -6.9 °F -11.6 °F 1017.5 in NNE 20.9 mph 27.4 mph 69 % 0.0 in
09:20 -6.9 °F -12.0 °F 1017.5 in ENE 17.7 mph 25.7 mph 67 % 0.0 in
09:26 -6.8 °F -11.7 °F 1017.5 in NE 17.7 mph 27.4 mph 68 % 0.0 in
09:32 -6.6 °F -11.7 °F 1017.5 in NNE 19.5 mph 22.5 mph 67 % 0.0 in
09:38 -6.4 °F -11.5 °F 1017.5 in ENE 6.4 mph 24.1 mph 67 % 0.0 in
09:44 -6.3 °F -12.0 °F 1017.2 in NE 16.3 mph 33.8 mph 64 % 0.0 in
09:50 -6.1 °F -11.6 °F 1017.2 in NE 16.3 mph 25.7 mph 65 % 0.0 in
09:56 -5.8 °F -11.9 °F 1017.2 in NE 16.3 mph 30.6 mph 62 % 0.0 in
10:02 -5.8 °F -11.9 °F 1017.2 in NE 22.7 mph 24.1 mph 62 % 0.0 in
10:08 -5.7 °F -12.0 °F 1017.2 in NE 6.4 mph 25.7 mph 61 % 0.0 in
10:14 -5.3 °F -11.4 °F 1017.2 in NE 13.0 mph 22.5 mph 62 % 0.0 in
10:20 -5.4 °F -12.4 °F 1017.2 in NE 13.0 mph 30.6 mph 58 % 0.0 in
10:26 -5.3 °F -12.3 °F 1016.8 in ENE 13.0 mph 29.0 mph 58 % 0.0 in
10:33 -5.3 °F -12.7 °F 1016.8 in ENE 17.7 mph 30.6 mph 56 % 0.0 in
10:39 -5.1 °F -12.3 °F 1016.8 in NE 13.0 mph 24.1 mph 57 % 0.0 in
10:44 -4.8 °F -12.0 °F 1016.8 in NNW 9.7 mph 19.3 mph 57 % 0.0 in
10:50 -4.7 °F -12.1 °F 1016.8 in NNE 27.4 mph 32.2 mph 56 % 0.0 in
10:56 -4.7 °F -12.1 °F 1016.8 in East 24.1 mph 27.4 mph 56 % 0.0 in
11:02 -4.6 °F -11.8 °F 1016.8 in ENE 14.3 mph 19.3 mph 57 % 0.0 in
11:08 -4.5 °F -12.2 °F 1016.5 in East 24.1 mph 35.4 mph 55 % 0.0 in
11:14 -4.4 °F -12.1 °F 1016.5 in NNE 7.9 mph 19.3 mph 55 % 0.0 in
11:20 -4.4 °F -12.8 °F 1016.5 in North 27.4 mph 33.8 mph 52 % 0.0 in
11:26 -4.2 °F -12.4 °F 1016.5 in ENE 24.1 mph 30.6 mph 53 % 0.0 in
11:32 -4.1 °F -12.3 °F 1016.5 in NE 22.7 mph 35.4 mph 53 % 0.0 in
11:38 -4.1 °F -12.3 °F 1016.5 in ENE 11.1 mph 25.7 mph 53 % 0.0 in
11:44 -3.8 °F -12.0 °F 1016.5 in East 16.3 mph 17.7 mph 53 % 0.0 in
11:50 -3.8 °F -12.2 °F 1016.5 in NNE 24.1 mph 40.2 mph 52 % 0.0 in
11:57 -4.2 °F -12.6 °F 1016.5 in NE 32.0 mph 37.0 mph 52 % 0.0 in
12:02 -4.4 °F -12.5 °F 1016.5 in NE 24.1 mph 35.4 mph 53 % 0.0 in
12:08 -4.4 °F -12.5 °F 1016.5 in NNE 28.8 mph 37.0 mph 53 % 0.0 in
12:14 -4.4 °F -12.8 °F 1016.5 in NE 20.9 mph 33.8 mph 52 % 0.0 in
12:20 -4.2 °F -12.4 °F 1016.1 in NNE 7.9 mph 16.1 mph 53 % 0.0 in
12:26 -3.9 °F -12.3 °F 1016.1 in NNE 20.9 mph 27.4 mph 52 % 0.0 in
12:32 -3.7 °F -12.4 °F 1016.1 in NE 20.9 mph 33.8 mph 51 % 0.0 in
12:38 -3.8 °F -12.5 °F 1016.1 in East 17.7 mph 24.1 mph 51 % 0.0 in
12:44 -3.3 °F -12.5 °F 1016.1 in East 16.3 mph 27.4 mph 49 % 0.0 in
12:50 -3.3 °F -12.0 °F 1016.1 in SE 9.7 mph 24.1 mph 51 % 0.0 in
12:56 -3.1 °F -12.3 °F 1016.1 in ENE 14.3 mph 30.6 mph 49 % 0.0 in
13:02 -3.4 °F -12.3 °F 1015.8 in NE 28.8 mph 30.6 mph 50 % 0.0 in
13:08 -3.1 °F -12.6 °F 1015.8 in ENE 22.7 mph 30.6 mph 48 % 0.0 in
13:15 -2.7 °F -11.9 °F 1015.8 in NE 22.7 mph 30.6 mph 49 % 0.0 in
13:21 -2.9 °F -12.6 °F 1015.8 in North 17.7 mph 25.7 mph 47 % 0.0 in
13:27 -2.7 °F -12.2 °F 1015.8 in NE 11.1 mph 29.0 mph 48 % 0.0 in
13:33 -2.7 °F -12.2 °F 1015.5 in NE 14.3 mph 29.0 mph 48 % 0.0 in
13:39 -3.1 °F -12.8 °F 1015.5 in NE 17.7 mph 35.4 mph 47 % 0.0 in
13:45 -3.4 °F -12.8 °F 1015.5 in NE 22.7 mph 33.8 mph 48 % 0.0 in
13:51 -3.6 °F -12.8 °F 1015.5 in NE 14.3 mph 27.4 mph 49 % 0.0 in
13:57 -3.4 °F -12.6 °F 1015.5 in NNE 14.3 mph 22.5 mph 49 % 0.0 in
14:03 -2.8 °F -12.0 °F 1015.1 in NE 19.5 mph 32.2 mph 49 % 0.0 in
14:09 -3.0 °F -13.0 °F 1015.1 in NE 17.7 mph 24.1 mph 46 % 0.0 in
14:15 -2.7 °F -12.2 °F 1015.1 in NNE 9.7 mph 16.1 mph 48 % 0.0 in
14:21 -2.6 °F -12.4 °F 1015.1 in NW 19.5 mph 30.6 mph 47 % 0.0 in
14:27 -3.2 °F -12.4 °F 1015.1 in NNE 9.7 mph 24.1 mph 49 % 0.0 in
14:33 -3.1 °F -12.3 °F 1015.1 in NE 14.3 mph 25.7 mph 49 % 0.0 in
14:39 -2.8 °F -12.3 °F 1015.1 in ENE 7.9 mph 16.1 mph 48 % 0.0 in
14:45 -2.4 °F -11.7 °F 1015.1 in NNE 11.1 mph 20.9 mph 49 % 0.0 in
14:51 -2.6 °F -12.1 °F 1015.1 in NNE 16.3 mph 27.4 mph 48 % 0.0 in
14:57 -3.3 °F -13.0 °F 1015.1 in NE 17.7 mph 22.5 mph 47 % 0.0 in
15:03 -3.1 °F -13.1 °F 1014.8 in NE 22.7 mph 24.1 mph 46 % 0.0 in
15:09 -2.9 °F -12.6 °F 1014.8 in ENE 9.7 mph 24.1 mph 47 % 0.0 in
15:15 -2.7 °F -11.7 °F 1014.8 in NNW 11.1 mph 16.1 mph 50 % 0.0 in
15:21 -2.9 °F -11.9 °F 1015.1 in NNE 13.0 mph 17.7 mph 50 % 0.0 in
15:27 -3.1 °F -12.8 °F 1014.8 in NNE 16.3 mph 25.7 mph 47 % 0.0 in
15:33 -2.9 °F -12.6 °F 1014.8 in NNE 13.0 mph 13.0 mph 47 % 0.0 in
15:39 -2.7 °F -12.5 °F 1014.8 in ENE 4.7 mph 22.5 mph 47 % 0.0 in
15:45 -2.7 °F -12.7 °F 1014.8 in ESE 11.1 mph 14.5 mph 46 % 0.0 in
15:51 -2.7 °F -12.5 °F 1014.8 in NNW 1.4 mph 17.7 mph 47 % 0.0 in
15:57 -2.9 °F -13.2 °F 1014.8 in NE 16.3 mph 20.9 mph 45 % 0.0 in
16:03 -3.2 °F -13.2 °F 1014.8 in North 6.4 mph 16.1 mph 46 % 0.0 in
16:09 -3.2 °F -12.7 °F 1014.4 in NNW 3.2 mph 24.1 mph 48 % 0.0 in
16:15 -2.6 °F -11.6 °F 1014.4 in ENE 1.4 mph 19.3 mph 50 % 0.0 in
16:21 -2.9 °F -12.4 °F 1014.4 in North 17.7 mph 22.5 mph 48 % 0.0 in
16:27 -3.3 °F -12.7 °F 1014.4 in East 22.7 mph 22.7 mph 48 % 0.0 in
16:33 -3.1 °F -12.3 °F 1014.4 in NNE 19.5 mph 20.9 mph 49 % 0.0 in
16:39 -2.9 °F -12.1 °F 1014.4 in NNW 24.1 mph 25.7 mph 49 % 0.0 in
16:45 -2.8 °F -11.5 °F 1014.4 in NNE 6.4 mph 22.5 mph 51 % 0.0 in
16:51 -3.0 °F -12.2 °F 1014.4 in NE 7.9 mph 22.5 mph 49 % 0.0 in
16:57 -3.3 °F -12.7 °F 1014.4 in NE 16.3 mph 19.3 mph 48 % 0.0 in
17:09 -3.3 °F -11.8 °F 1014.4 in North 13.0 mph 14.5 mph 52 % 0.0 in
17:15 -3.2 °F -11.9 °F 1014.4 in NNE 6.4 mph 12.9 mph 51 % 0.0 in
17:21 -3.1 °F -11.8 °F 1014.4 in NE 13.0 mph 14.5 mph 51 % 0.0 in
17:27 -3.3 °F -12.2 °F 1014.4 in NNE 13.0 mph 20.9 mph 50 % 0.0 in
17:33 -3.7 °F -12.1 °F 1014.4 in NNE 13.0 mph 17.7 mph 52 % 0.0 in
17:39 -3.8 °F -11.7 °F 1014.4 in NNE 4.7 mph 9.7 mph 54 % 0.0 in
17:45 -3.8 °F -12.0 °F 1014.4 in NE 6.4 mph 19.3 mph 53 % 0.0 in
17:51 -3.7 °F -11.9 °F 1014.4 in NNE 9.7 mph 17.7 mph 53 % 0.0 in
17:57 -3.7 °F -11.9 °F 1014.4 in NE 9.7 mph 20.9 mph 53 % 0.0 in
18:03 -3.7 °F -11.9 °F 1014.4 in NE 9.7 mph 20.9 mph 53 % 0.0 in
18:09 -3.8 °F -12.0 °F 1014.4 in NE 4.7 mph 11.3 mph 53 % 0.0 in
18:15 -3.9 °F -12.1 °F 1014.4 in ENE 7.9 mph 12.9 mph 53 % 0.0 in
18:21 -4.1 °F -12.0 °F 1014.4 in NE 7.9 mph 17.7 mph 54 % 0.0 in
18:27 -4.1 °F -12.5 °F 1014.4 in NE 14.3 mph 19.3 mph 52 % 0.0 in
18:33 -4.2 °F -12.6 °F 1014.4 in NNE 11.1 mph 24.1 mph 52 % 0.0 in
18:39 -4.3 °F -12.4 °F 1014.8 in NE 3.2 mph 12.9 mph 53 % 0.0 in
18:45 -4.4 °F -12.3 °F 1014.8 in NE 7.9 mph 9.7 mph 54 % 0.0 in
18:51 -4.6 °F -12.0 °F 1014.8 in North 3.2 mph 4.8 mph 56 % 0.0 in
18:57 -4.7 °F -11.9 °F 1014.8 in North 1.4 mph 6.4 mph 57 % 0.0 in
19:03 -4.7 °F -12.1 °F 1014.8 in NNE 16.3 mph 17.7 mph 56 % 0.0 in
19:09 -4.7 °F -11.9 °F 1014.8 in NE 9.7 mph 16.1 mph 57 % 0.0 in
19:15 -4.7 °F -11.9 °F 1014.8 in North 11.1 mph 17.7 mph 57 % 0.0 in
19:21 -4.8 °F -12.0 °F 1014.8 in NNE 9.7 mph 12.9 mph 57 % 0.0 in
19:27 -4.9 °F -12.1 °F 1014.8 in North 7.9 mph 12.9 mph 57 % 0.0 in
19:33 -4.9 °F -11.9 °F 1014.8 in North 1.4 mph 16.1 mph 58 % 0.0 in
19:39 -5.0 °F -12.0 °F 1014.8 in NNE 7.9 mph 17.7 mph 58 % 0.0 in
19:45 -5.1 °F -11.9 °F 1014.8 in Calm   12.9 mph 59 % 0.0 in
19:51 -5.2 °F -11.8 °F 1014.8 in NNW 9.7 mph 12.9 mph 60 % 0.0 in
19:57 -5.2 °F -11.8 °F 1014.8 in North 3.2 mph 14.5 mph 60 % 0.0 in
20:04 -5.2 °F -11.8 °F 1014.8 in NNE 4.7 mph 19.3 mph 60 % 0.0 in
20:10 -5.3 °F -11.6 °F 1014.8 in East 1.4 mph 9.7 mph 61 % 0.0 in
20:16 -5.3 °F -11.6 °F 1014.8 in NNE 14.3 mph 17.7 mph 61 % 0.0 in
20:22 -5.3 °F -11.6 °F 1014.8 in NNE 7.9 mph 14.5 mph 61 % 0.0 in
20:28 -5.4 °F -11.7 °F 1014.8 in NNW 1.4 mph 19.3 mph 61 % 0.0 in
20:34 -5.4 °F -11.5 °F 1014.8 in NNW 4.7 mph 20.9 mph 62 % 0.0 in
20:40 -5.5 °F -11.6 °F 1014.8 in NE 13.0 mph 14.5 mph 62 % 0.0 in
20:46 -5.6 °F -11.5 °F 1014.8 in Calm   11.3 mph 63 % 0.0 in
20:52 -5.6 °F -11.5 °F 1014.8 in North 11.1 mph 14.5 mph 63 % 0.0 in
20:58 -5.7 °F -11.6 °F 1014.8 in NNE 9.7 mph 14.5 mph 63 % 0.0 in
21:04 -5.7 °F -11.6 °F 1014.8 in NNE 11.1 mph 17.7 mph 63 % 0.0 in
21:10 -5.7 °F -11.6 °F 1014.8 in NNE 13.0 mph 22.5 mph 63 % 0.0 in
21:16 -5.8 °F -11.7 °F 1014.8 in NNE 13.0 mph 20.9 mph 63 % 0.0 in
21:22 -5.8 °F -11.5 °F 1014.8 in NE 17.7 mph 17.7 mph 64 % 0.0 in
21:28 -5.9 °F -11.6 °F 1014.8 in NNE 3.2 mph 16.1 mph 64 % 0.0 in
21:34 -6.0 °F -11.5 °F 1014.8 in NNE 17.7 mph 24.1 mph 65 % 0.0 in
21:40 -6.1 °F -11.6 °F 1014.8 in NE 14.3 mph 20.9 mph 65 % 0.0 in
21:46 -6.1 °F -11.6 °F 1014.8 in NNE 11.1 mph 19.3 mph 65 % 0.0 in
21:52 -6.1 °F -11.6 °F 1014.8 in NE 4.7 mph 19.3 mph 65 % 0.0 in
21:58 -6.2 °F -11.7 °F 1014.8 in NE 13.0 mph 17.7 mph 65 % 0.0 in
22:06 -6.3 °F -11.6 °F 1014.8 in North 11.1 mph 16.1 mph 66 % 0.0 in
22:12 -6.3 °F -11.6 °F 1014.8 in NNE 7.9 mph 16.1 mph 66 % 0.0 in
22:18 -6.4 °F -11.7 °F 1014.8 in NE 3.2 mph 19.3 mph 66 % 0.0 in
22:24 -6.4 °F -11.5 °F 1014.8 in North 1.4 mph 11.3 mph 67 % 0.0 in
22:30 -6.6 °F -11.7 °F 1014.8 in NE 7.9 mph 11.3 mph 67 % 0.0 in
22:36 -6.6 °F -11.7 °F 1014.8 in NNE 6.4 mph 11.3 mph 67 % 0.0 in
22:42 -6.7 °F -11.6 °F 1014.8 in NE 6.4 mph 11.3 mph 68 % 0.0 in
22:48 -6.8 °F -11.7 °F 1014.8 in NNE 7.9 mph 11.3 mph 68 % 0.0 in
22:54 -6.8 °F -11.7 °F 1014.4 in NNE 7.9 mph 11.3 mph 68 % 0.0 in
23:00 -6.9 °F -11.6 °F 1014.4 in NNE 6.4 mph 8.0 mph 69 % 0.0 in
23:06 -7.0 °F -11.7 °F 1014.8 in NNE 4.7 mph 8.0 mph 69 % 0.0 in
23:12 -7.1 °F -11.8 °F 1014.4 in NE 6.4 mph 8.0 mph 69 % 0.0 in
23:18 -7.1 °F -11.6 °F 1014.4 in NNE 4.7 mph 9.7 mph 70 % 0.0 in
23:24 -7.2 °F -11.7 °F 1014.8 in NE 3.2 mph 8.0 mph 70 % 0.0 in
23:30 -7.2 °F -11.7 °F 1014.8 in NE 1.4 mph 8.0 mph 70 % 0.0 in
23:36 -7.3 °F -11.8 °F 1014.8 in NE 4.7 mph 9.7 mph 70 % 0.0 in
23:42 -7.3 °F -11.7 °F 1014.4 in NE 6.4 mph 9.7 mph 71 % 0.0 in
23:48 -7.3 °F -11.7 °F 1014.4 in NNE 4.7 mph 9.7 mph 71 % 0.0 in
23:54 -7.4 °F -11.8 °F 1014.4 in NE 4.7 mph 6.4 mph 71 % 0.0 in
Meteo18
Compliments of Weather Underground - 4 mb

Script developed by  Jim McMurry - jmcmurry@mwt.net Adapted for the template by  Wim van der Kuil - Leuven-Template.eu

You find our weather info also at:

European Weather Network

Weather Underground

Equipment we use:

Weather-station
Davis Vue

Weather-program
Meteobridge

Weather-server
Raspberry PI 2 B+

Provider
1 and 1

Davis Vue

Meteobridge

Raspberry PI 2 B+

1 and 1